{"data":{"norad_id":53886,"intl_designator":"2022-119A","name":"STARLINK-5028","alt_names":[],"object_type":"PAYLOAD","status":"ACTIVE","operator":null,"country":"US","launch_date":"2022-09-24","launch_site_code":"AFETR","launch_vehicle":null,"mission":null,"orbit_class":"UNKNOWN","rcs_meters":null,"size_class":null,"mass_kg":null,"dimensions":null,"purposes":["comms"],"wikipedia_slug":null,"has_3d_model":false,"image_url":null,"decayed_at":null,"tle_current":{"epoch":"2026-05-24T22:44:11.611104Z","epoch_age_seconds":73449,"freshness":"FRESH","line1":"1 53886U 22119A   26144.94735661  .00003277  00000+0  22375-3 0  9993","line2":"2 53886  53.2169 342.0145 0001076  55.7913 304.3181 15.08863527203191","mean_motion":15.08863527,"eccentricity":0.0001076,"inclination_deg":53.2169,"raan_deg":342.0145,"arg_perigee_deg":55.7913,"mean_anomaly_deg":304.3181,"bstar":0.00022375,"rev_number":20319,"period_min":95.436066564819,"perigee_km":538.92712107949,"apogee_km":540.4158334638,"semimajor_km":6917.8084772716,"source":"CELESTRAK","updated_at":"2026-05-25T13:38:17.581107Z"}}}